GFSSW_2pvu_pres_093.txt.gz
Presure
176 177 166 157 166 172 196 174 172 175 174 177 194 190 214 169 206 158 132 147 184 214 152 199 186 189 183 214 196 221 219 218 219 225 213 221 216 232 119 230 225 218 231 323 258
191 177 182 164 199 194 179 187 177 174 191 173 203 185 210 173 199 180 200 210 202 165 199 199 193 208 185 202 215 221 213 211 208 210 210 166 215 139 229 220 215 223 229 327 257
184 173 188 153 142 196 227 225 223 190 198 170 152 161 160 182 202 191 201 196 206 161 164 207 202 172 203 194 212 223 225 214 210 226 211 198 218 223 135 214 211 213 216 290 250
183 185 186 185 194 166 129 209 136 186 144 224 206 176 199 209 185 189 203 194 163 184 171 193 199 199 200 192 200 198 201 205 198 219 170 199 218 218 218 206 208 211 213 278 255
182 193 189 143 178 205 173 207 210 179 173 194 208 212 201 208 188 224 192 178 170 187 198 182 198 204 198 198 204 195 191 211 209 207 171 200 221 213 209 210 208 210 200 262 262
199 161 203 210 185 198 184 213 183 149 198 171 214 174 211 180 209 179 210 200 203 192 181 191 193 186 179 194 197 199 190 205 201 200 188 181 220 208 192 204 210 198 204 240 280
190 193 208 211 206 205 227 212 201 216 205 211 227 197 170 215 164 213 214 171 179 201 200 201 194 184 196 177 197 195 194 196 211 189 188 214 214 200 205 208 204 205 202 217 259
209 197 204 218 198 212 218 204 219 226 215 237 234 227 273 228 230 219 207 203 192 180 209 198 185 191 163 186 186 203 191 197 218 203 196 206 210 202 202 198 216 205 195 214 254
192 195 186 220 208 198 216 211 220 214 224 241 250 235 226 236 194 221 226 204 207 203 194 202 189 202 174 192 193 200 202 188 211 200 197 191 205 200 202 187 215 200 201 208 233
232 203 223 227 217 216 206 223 233 255 263 317 260 235 254 234 205 165 207 187 212 195 202 207 196 183 206 194 199 195 193 192 222 186 203 188 197 196 195 198 198 205 209 205 220
212 226 224 211 209 206 228 232 260 306 297 302 280 300 239 242 250 213 222 215 189 204 204 205 187 187 151 184 203 196 198 184 210 188 190 178 194 190 189 188 197 217 207 204 207
212 211 207 210 215 234 234 250 257 302 290 268 257 294 229 262 256 225 232 218 206 200 205 192 197 178 184 198 193 197 196 188 190 207 185 194 198 191 188 184 190 195 212 199 203
202 205 218 218 241 225 290 289 303 296 302 279 284 287 273 271 252 226 231 215 213 189 206 208 207 194 192 179 195 200 194 193 191 211 185 180 181 195 187 179 200 243 197 205 206
215 220 222 230 227 256 317 302 307 296 307 296 280 291 285 261 247 227 219 204 210 209 212 206 206 198 209 194 204 198 195 199 205 211 201 178 185 200 201 177 189 212 224 204 200
238 245 238 232 254 271 293 303 305 299 318 310 302 287 274 258 254 211 226 212 198 201 211 214 212 196 209 203 189 195 198 197 200 202 203 179 183 185 187 194 204 222 223 198 198
229 232 237 257 311 276 298 323 303 306 317 309 305 281 273 262 241 229 246 221 216 208 202 199 207 208 200 188 206 196 201 207 200 204 190 184 176 184 193 186 208 168 208 199 199
243 255 315 301 306 302 306 295 300 327 319 304 234 84 161 190 252 233 217 222 227 205 213 204 202 197 208 201 200 207 203 203 200 204 179 186 192 163 147 178 206 218 224 199 193
296 316 316 317 309 306 300 295 309 312 310 306 323 290 288 253 256 229 220 225 230 214 109 208 221 201 190 212 206 206 207 214 215 220 184 174 182 163 159 199 203 211 213 195 189
315 330 323 323 323 315 323 329 324 310 297 305 302 317 120 273 250 244 209 228 230 224 216 218 220 199 223 221 208 207 211 199 216 188 194 189 189 168 193 201 189 209 171 203 179
340 335 320 320 324 329 330 342 346 342 319 276 287 296 317 268 257 244 248 227 219 129 220 217 203 223 214 217 221 214 213 211 196 198 198 182 186 175 180 179 204 191 222 207 186
340 341 332 339 340 341 335 328 315 313 307 344 282 286 243 314 286 252 238 102 137 217 210 223 207 213 223 219 225 222 215 219 202 201 214 193 192 177 182 199 169 203 216 208 198
340 337 328 338 342 344 337 349 381 389 319 114 353 293 288 297 314 86 247 241 246 234 224 216 101 194 212 208 219 219 216 230 210 228 218 202 194 185 180 151 188 193 208 209 192
330 328 332 142 170 343 364 356 365 380 404 453 340 360 298 285 294 193 237 252 242 231 129 233 128 169 217 221 215 215 212 215 208 222 211 208 183 193 177 194 197 197 209 213 197
329 332 327 332 355 346 344 352 358 376 405 265 440 335 298 299 287 296 257 271 281 247 243 242 211 230 216 214 215 213 213 202 221 203 207 201 192 183 179 202 200 201 207 217 197
322 326 341 349 337 338 345 360 366 383 221 114 419 326 345 298 294 289 301 253 266 283 258 252 250 240 229 222 222 219 210 213 211 211 215 194 192 187 188 193 193 211 211 212 196
327 336 338 514 313 337 363 366 383 397 407 409 394 102 95 139 291 287 292 307 247 257 281 239 236 238 239 231 227 226 224 221 214 218 216 210 192 192 200 195 200 218 222 209 203
397 389 395 356 325 343 372 380 229 401 392 383 305 326 339 341 297 287 280 231 112 306 251 269 246 253 241 248 244 238 232 238 233 226 221 221 215 209 212 196 205 227 222 202 202

GFSSW_2pvu_pres_096.txt.gz
Presure
193 194 184 181 194 182 182 193 166 168 204 174 166 204 175 200 180 182 174 179 201 216 203 195 217 150 199 206 188 201 195 217 214 223 227 193 225 219 220 217 232 230 224 224 233
185 191 173 185 185 158 182 199 199 194 174 177 188 167 166 170 172 187 185 169 192 149 170 174 218 214 171 194 181 196 203 184 191 175 208 190 219 215 229 147 208 148 223 223 223
185 182 177 184 184 195 184 148 194 208 213 180 209 208 158 176 210 164 198 209 192 197 201 201 185 186 206 174 199 187 200 203 200 189 215 214 211 207 87 221 184 215 213 213 228
176 183 184 188 190 194 184 207 210 198 194 216 203 180 214 193 190 207 225 189 231 191 227 146 195 181 154 156 168 203 188 198 207 211 195 208 198 225 198 226 236 209 213 213 226
179 184 201 203 191 194 195 208 198 162 210 188 199 216 169 214 214 211 153 229 214 217 211 196 196 178 198 190 196 189 194 184 198 201 198 192 214 205 220 131 203 217 215 217 210
191 191 181 192 191 189 194 194 204 200 181 193 200 209 206 160 167 176 204 202 184 216 230 190 188 205 199 172 196 194 190 184 203 189 199 191 211 202 201 215 214 211 206 218 204
204 185 191 178 196 199 210 184 202 189 195 186 184 215 200 215 207 214 231 231 249 214 207 225 219 209 212 201 202 153 194 180 194 192 196 194 213 207 201 202 209 220 211 221 204
198 188 183 206 194 185 210 194 199 185 185 191 217 218 202 214 219 228 221 213 214 201 245 215 226 206 179 204 198 185 192 187 192 178 192 195 210 198 200 200 201 210 189 200 217
191 206 183 196 187 205 217 183 197 191 223 223 225 216 216 218 230 253 305 238 258 248 269 203 164 205 205 208 204 196 188 196 164 191 198 199 204 198 197 198 197 191 209 193 226
197 199 194 189 195 224 222 228 225 205 220 213 213 218 207 236 261 305 299 251 239 261 235 219 205 210 195 179 194 191 191 200 198 197 198 195 198 190 201 201 193 210 212 200 220
197 190 200 226 231 236 231 220 217 215 209 216 211 239 230 281 322 293 286 286 259 267 238 223 226 211 155 199 200 189 202 194 198 181 204 194 190 197 199 202 188 195 196 197 196
194 204 217 231 218 219 220 209 215 218 207 218 230 243 256 337 303 280 280 275 269 260 234 225 216 166 198 206 210 197 196 186 199 204 205 189 193 195 205 211 192 191 193 184 241
218 218 204 212 223 222 213 216 219 214 239 234 236 250 334 330 294 283 279 279 244 254 226 214 206 217 207 205 200 203 189 192 187 189 209 178 178 178 200 179 193 192 164 221 236
213 220 223 231 207 214 221 212 231 241 226 236 250 336 321 309 294 281 284 275 236 236 229 223 210 216 214 204 197 197 197 196 183 199 208 179 175 191 203 191 186 198 189 186 242
214 217 220 206 222 232 238 232 225 224 233 268 336 324 303 303 300 296 284 275 229 228 242 221 215 219 211 204 195 203 189 198 209 202 212 185 175 179 204 185 182 193 195 210 234
215 208 217 227 234 230 230 227 237 257 264 299 330 314 306 302 293 297 282 262 253 225 253 234 218 228 217 204 203 208 201 200 201 203 200 194 201 184 201 192 188 184 200 201 217
217 221 228 230 224 227 235 257 249 263 349 333 324 304 303 312 293 285 286 268 256 253 245 234 223 241 214 197 210 205 202 205 200 209 199 195 204 194 188 180 188 186 178 194 217
228 236 227 249 250 249 249 251 277 348 331 323 318 308 297 291 299 291 279 139 250 254 249 231 227 222 209 215 213 209 214 216 197 204 201 205 210 189 185 186 183 153 174 140 207
240 241 246 254 249 259 274 313 342 329 325 325 98 311 73 293 292 296 274 272 260 251 250 233 225 221 216 221 215 204 200 212 201 206 201 207 203 189 196 187 195 177 156 161 169
254 254 259 265 267 313 321 347 339 320 333 328 324 331 320 300 297 297 283 280 269 250 257 236 223 215 171 214 207 217 204 204 205 216 217 208 214 199 194 194 183 178 187 185 199
277 293 329 348 349 348 346 334 335 330 334 338 336 348 329 340 314 299 303 300 273 214 246 191 184 215 216 216 205 216 209 218 220 196 211 210 200 204 184 191 187 193 206 193 185
366 366 359 345 348 342 336 329 328 335 337 344 349 351 345 325 341 303 305 147 188 258 250 246 226 222 218 216 213 208 206 217 199 211 224 214 201 197 182 194 186 210 186 178 189
370 363 354 352 335 331 321 321 322 325 335 341 342 220 357 393 324 335 299 167 304 268 219 253 236 223 219 217 209 225 214 212 201 215 222 226 209 191 186 193 198 187 186 193 185
383 366 356 350 132 321 327 321 322 333 332 339 358 362 372 381 386 338 347 303 313 294 254 256 240 239 229 224 227 220 208 215 219 222 229 220 220 190 191 178 195 202 199 190 182
380 374 366 357 349 339 334 321 325 326 346 359 353 349 370 404 448 327 350 302 306 307 287 252 250 235 230 231 228 220 225 210 226 201 221 216 227 188 208 201 193 199 189 196 195
381 367 369 363 345 335 323 324 334 355 353 344 346 367 350 418 427 413 342 302 296 303 315 287 242 245 245 224 219 218 225 219 217 219 216 218 223 223 194 204 201 196 192 190 203
364 361 344 334 327 333 341 371 359 321 329 374 392 402 409 367 187 340 330 350 294 287 300 314 277 249 243 248 241 233 227 226 222 215 216 224 213 199 202 207 205 201 197 190 195

GFSSW_2pvu_pres_099.txt.gz
Presure
194 189 191 178 185 191 192 178 193 185 178 203 187 187 174 177 204 182 203 175 177 209 188 195 198 187 199 210 202 178 198 200 194 193 178 206 186 207 222 121 221 220 230 220 224
161 183 179 103 193 190 187 194 188 189 193 186 174 195 196 179 176 206 207 218 186 202 207 217 197 181 184 203 176 201 194 192 195 190 203 194 199 197 205 213 217 228 186 246 216
194 192 192 187 195 191 191 180 171 183 198 202 222 181 160 190 217 227 179 232 133 197 215 187 147 225 207 207 216 184 196 195 187 163 178 204 194 201 207 211 232 202 211 232 228
176 176 183 182 180 179 177 183 197 192 203 202 158 199 122 148 204 199 209 195 213 152 187 227 228 170 174 194 186 208 219 187 208 201 151 195 198 204 174 205 217 223 199 229 208
183 178 183 183 182 186 190 188 188 192 191 188 184 194 203 197 202 201 223 198 174 190 224 216 192 216 204 167 215 186 209 203 199 201 195 199 189 200 194 200 214 204 164 120 212
178 186 197 188 197 184 183 185 189 196 193 184 196 193 199 189 210 199 202 198 161 223 208 224 180 222 166 229 206 214 178 207 196 194 185 182 199 198 203 200 173 215 132 218 219
176 189 184 189 188 200 192 189 181 183 198 185 199 185 211 219 223 205 219 221 198 160 214 221 216 222 238 205 231 207 198 214 207 199 200 182 193 204 191 196 206 204 198 210 218
187 186 182 189 201 193 194 192 182 180 194 203 187 194 200 185 237 184 187 190 212 228 222 224 239 219 230 248 223 176 207 216 200 188 206 190 190 196 191 197 187 198 202 196 211
178 183 197 182 205 193 206 204 195 192 201 174 183 200 217 229 226 217 209 211 218 226 224 225 232 319 165 244 213 203 191 206 197 202 202 180 188 182 189 133 199 191 202 199 201
201 204 187 195 193 195 201 194 211 187 202 202 205 219 226 232 210 205 204 209 202 219 236 248 332 306 243 251 204 202 202 185 205 203 193 192 186 197 192 198 190 193 199 201 210
177 189 189 191 189 184 197 189 202 204 203 201 191 214 227 216 219 218 215 235 222 252 244 340 318 299 248 242 239 214 215 220 213 209 205 200 190 194 193 190 189 194 201 202 197
176 197 208 190 202 205 195 193 208 213 196 209 220 221 223 223 226 216 225 239 229 235 339 335 301 262 243 255 243 214 200 209 202 200 198 177 188 195 184 191 196 203 190 203 193
205 203 190 201 206 203 209 216 218 207 208 211 202 219 221 213 234 224 239 232 232 249 335 315 292 293 239 247 240 223 215 210 209 203 203 191 196 190 190 189 188 193 197 192 176
204 204 211 208 211 203 214 215 222 204 216 236 206 225 218 225 239 242 229 222 246 333 325 317 280 276 236 259 227 216 206 209 202 210 72 197 200 177 188 188 187 195 191 193 191
206 216 205 213 212 220 224 220 206 213 223 228 140 236 222 241 243 223 235 246 285 332 314 303 269 276 240 245 233 218 215 212 211 208 214 201 172 182 193 186 189 180 197 191 194
225 230 231 234 230 234 233 225 246 220 228 225 224 234 244 238 228 247 250 279 331 321 315 302 265 280 264 236 239 222 206 207 209 203 219 185 200 197 180 187 189 181 198 191 190
225 230 240 229 247 242 242 239 230 233 218 219 241 241 232 245 258 255 284 339 317 316 314 305 288 265 254 238 222 217 214 205 214 205 194 201 198 201 196 186 194 194 197 193 197
233 240 225 239 232 231 233 230 230 204 228 243 241 241 248 264 260 287 349 326 318 309 310 128 299 265 243 242 229 223 214 213 213 205 212 200 201 203 192 190 197 198 193 188 185
227 266 249 249 226 225 221 209 229 247 262 241 221 251 258 272 334 367 340 317 302 300 312 273 281 257 244 227 234 231 220 207 213 210 204 217 204 202 194 196 204 203 192 188 188
238 237 236 240 236 239 243 256 253 258 254 186 263 266 280 354 365 275 232 338 322 305 306 306 290 264 238 229 238 230 229 212 223 207 211 203 208 202 197 196 200 204 197 189 188
257 246 252 255 256 258 259 258 256 265 266 271 311 362 359 350 346 346 334 310 340 310 294 303 288 271 141 245 242 232 230 209 227 223 208 214 210 208 197 196 200 197 196 204 197
277 271 270 269 274 278 275 300 315 363 358 362 359 352 353 347 343 352 344 338 343 317 296 301 299 93 252 238 232 226 217 214 243 209 199 200 213 207 219 202 198 196 203 193 214
507 420 413 412 413 406 391 375 366 359 352 350 350 344 342 334 256 317 341 345 353 349 261 139 299 270 257 248 237 227 229 221 216 221 236 202 204 201 197 217 203 206 193 198 201
495 461 419 388 390 383 378 372 361 355 350 348 344 335 328 327 148 338 344 349 350 336 345 308 285 281 260 253 247 240 225 226 215 220 211 212 212 220 204 196 208 205 198 190 196
453 429 392 372 371 371 367 368 203 208 346 349 337 337 328 328 328 337 357 367 270 327 357 310 307 291 264 262 249 237 234 225 224 212 223 210 214 217 216 202 211 207 197 200 197
424 400 378 356 361 361 360 358 357 351 356 349 346 325 324 328 350 353 360 363 391 420 345 303 311 289 272 257 257 245 237 231 220 224 217 205 214 208 200 211 219 221 190 207 193
391 363 346 352 355 355 354 359 365 365 359 336 322 333 190 93 342 343 355 381 440 437 334 332 306 315 283 260 251 261 242 231 229 228 219 227 213 204 211 209 213 223 216 199 197

GFSSW_2pvu_pres_102.txt.gz
Presure
180 179 178 202 170 189 183 198 189 192 190 199 196 187 199 180 192 174 176 211 200 183 228 186 195 194 216 204 232 213 201 204 222 187 186 162 208 179 197 184 205 198 218 236 230
188 102 177 149 110 183 194 192 192 171 161 158 194 193 185 196 190 193 203 194 214 201 180 170 202 197 166 195 189 211 219 185 199 205 177 211 199 189 198 187 199 217 199 207 232
119 198 133 181 176 181 135 192 173 192 184 192 196 194 183 193 184 172 197 204 201 204 202 214 227 209 223 205 229 182 218 219 204 173 204 216 201 185 193 194 193 198 206 203 222
155 196 191 185 186 192 192 184 183 182 182 185 183 179 181 183 189 201 182 198 193 191 207 206 193 215 224 220 226 222 242 213 201 223 226 197 184 192 191 198 201 143 195 200 212
186 195 172 187 190 186 188 178 165 185 183 184 184 191 193 196 202 186 204 198 202 185 211 192 225 223 226 201 196 209 236 219 190 201 206 155 181 207 201 192 182 201 197 166 207
161 178 176 179 183 172 195 179 181 183 179 199 199 195 199 193 193 193 188 196 200 197 205 192 199 247 236 234 222 192 228 173 216 236 182 217 205 170 192 191 186 196 198 195 205
185 197 147 185 186 186 181 182 179 180 190 189 187 185 190 190 199 201 192 189 192 214 207 159 192 217 199 215 216 175 227 202 211 220 222 220 210 195 194 193 193 196 188 194 208
186 189 183 175 179 181 189 190 183 191 173 187 193 184 191 202 195 204 182 191 208 205 190 239 230 219 214 220 227 245 240 225 193 217 204 233 208 193 193 192 195 189 195 178 203
187 204 194 168 187 187 188 193 190 192 189 174 185 203 194 199 194 199 209 201 190 204 203 216 224 218 208 218 233 212 247 220 269 228 192 231 214 195 197 194 177 181 186 178 196
202 198 200 171 197 186 165 173 175 185 185 195 196 200 192 195 194 198 201 194 206 189 205 195 220 218 216 223 233 265 257 337 282 227 229 226 231 197 198 189 186 186 84 193 196
204 195 154 194 208 198 213 195 190 196 190 192 189 198 195 196 177 194 194 196 204 202 216 220 220 223 229 227 250 246 358 324 262 217 214 222 232 198 192 202 186 184 184 194 184
207 202 199 196 200 194 202 193 211 185 192 174 193 182 194 197 207 210 192 223 216 210 218 215 234 216 232 240 252 268 338 313 235 228 232 218 226 195 197 197 186 188 188 195 193
191 206 207 199 192 200 206 195 191 185 204 202 181 194 192 204 204 203 207 214 211 199 223 228 235 210 254 255 238 344 314 290 244 224 238 233 231 206 193 196 182 170 196 191 188
214 201 214 211 194 201 192 203 202 204 207 208 208 204 203 200 209 207 205 212 226 226 237 238 233 237 250 242 255 344 298 248 242 248 226 234 227 203 197 198 183 185 192 197 194
198 214 211 218 199 205 201 202 209 205 218 210 215 197 209 209 207 208 209 239 243 241 238 238 234 247 235 263 362 330 293 270 236 250 239 229 227 203 200 144 188 190 181 186 184
218 215 206 218 206 207 209 212 214 220 217 230 227 111 236 227 218 242 242 233 243 232 222 239 242 246 269 360 344 305 290 269 226 251 243 224 227 208 202 191 188 186 176 189 188
218 230 219 206 207 214 218 224 214 209 213 220 222 224 233 231 221 239 250 250 232 210 234 250 249 258 335 356 329 296 276 268 230 250 219 220 215 195 198 195 189 189 196 199 185
230 233 224 232 221 232 227 224 236 230 231 226 230 247 255 221 220 245 245 241 221 238 270 258 256 261 359 347 313 299 276 272 242 244 230 219 228 202 206 198 189 190 198 193 199
244 242 246 240 237 234 237 212 223 212 244 250 229 258 264 266 246 236 222 228 242 258 264 263 111 361 323 333 314 288 266 269 253 256 232 218 216 206 200 202 195 193 193 198 187
273 267 259 262 254 258 260 253 251 248 237 259 259 254 256 235 233 246 253 266 262 258 272 288 366 348 333 322 304 296 266 257 242 248 220 218 204 214 206 200 189 190 191 196 179
251 262 268 277 276 286 252 279 260 230 250 255 237 240 250 253 255 267 269 265 266 288 285 369 360 326 321 319 297 284 271 253 242 233 228 209 207 207 213 202 201 196 196 200 196
288 290 275 269 269 254 250 250 256 263 266 262 259 256 257 269 271 269 277 308 371 370 370 357 343 351 318 300 288 292 266 250 237 229 227 215 213 199 210 211 205 201 203 197 198
405 398 409 420 422 466 478 329 299 289 307 309 315 332 319 323 343 376 369 360 351 357 361 361 333 345 314 215 292 293 255 255 242 226 238 239 206 223 207 201 202 205 204 201 201
386 394 435 465 433 413 426 410 397 399 355 350 385 379 372 369 369 360 355 238 340 343 83 356 345 208 85 303 301 298 256 245 241 247 222 215 217 210 207 209 214 205 207 208 200
373 393 452 418 430 427 404 384 371 376 340 375 361 371 365 360 352 351 345 334 330 337 339 348 354 340 326 138 302 300 256 254 241 246 233 231 217 205 199 222 226 216 208 208 210
371 456 415 405 394 419 392 371 357 365 369 368 368 363 357 351 346 343 334 336 328 342 339 342 360 344 342 295 296 302 262 252 243 237 231 225 246 241 222 219 207 200 198 198 198
440 410 389 391 396 377 357 352 355 359 364 360 359 358 354 353 350 277 166 329 327 341 363 366 358 334 361 296 290 309 279 258 244 233 226 240 225 218 240 233 227 230 209 206 211

GFSSW_2pvu_pres_105.txt.gz
Presure
163 188 173 180 168 178 187 178 188 181 187 198 191 136 183 192 192 202 203 199 193 192 192 198 195 197 222 206 221 220 194 184 214 204 185 196 206 173 194 203 208 207 217 209 207
182 186 164 171 167 159 172 99 146 184 186 186 182 189 191 195 165 193 196 195 195 200 202 200 193 201 208 201 216 192 212 225 235 203 185 225 205 206 210 186 202 174 207 205 203
190 192 168 138 189 155 160 132 129 165 202 196 199 191 192 125 191 188 191 188 193 184 179 189 201 203 187 213 214 196 216 191 246 222 218 212 197 221 204 208 200 203 204 204 207
171 195 158 206 144 200 186 201 199 174 191 191 183 190 195 191 194 179 189 185 185 191 193 202 204 205 201 197 203 188 190 241 242 188 209 208 230 221 220 166 211 203 187 208 194
193 179 199 184 205 183 187 172 204 175 198 196 183 188 184 193 187 183 185 185 183 201 192 190 195 187 198 209 198 201 214 231 222 236 209 190 215 230 233 225 217 204 200 190 202
180 152 166 172 199 196 190 190 189 189 172 181 184 177 186 189 186 181 182 181 197 185 182 190 190 207 208 204 190 210 213 241 236 221 233 234 228 179 216 220 214 207 204 184 199
186 192 220 227 194 184 189 195 176 174 186 187 182 177 187 187 186 181 183 177 180 193 172 187 196 206 200 199 217 198 219 207 233 223 217 213 241 242 200 223 234 206 191 196 198
210 192 184 238 224 189 161 168 182 193 179 173 182 179 163 186 185 189 190 187 192 179 184 196 200 198 188 196 207 204 205 203 216 233 237 215 242 234 227 232 236 201 196 199 195
204 205 168 206 229 215 197 191 189 183 187 175 193 187 180 191 194 191 186 188 194 192 195 204 202 197 192 196 204 207 217 221 225 240 233 227 128 228 290 237 226 201 197 196 197
205 204 187 209 226 220 206 202 181 197 189 187 185 189 176 189 182 180 193 177 188 186 197 190 203 207 192 201 211 216 237 231 236 242 223 270 262 342 262 224 228 199 197 195 192
216 214 193 224 217 224 211 205 194 210 195 196 194 205 188 208 181 178 202 200 189 180 204 183 186 196 204 213 223 214 230 222 227 271 264 266 321 330 265 240 236 203 197 197 186
217 217 206 214 226 222 216 175 202 207 183 209 207 192 189 195 195 193 198 207 204 183 201 185 186 197 210 203 211 224 227 237 263 229 275 254 334 316 243 231 193 204 198 197 195
219 208 219 229 227 227 227 208 205 206 195 191 198 200 198 198 196 190 193 192 192 191 196 204 209 209 209 217 216 223 235 263 274 248 244 335 324 295 241 203 233 181 200 198 195
221 218 216 234 230 227 222 217 213 204 215 179 205 199 197 198 197 189 200 210 209 206 206 210 201 214 216 224 216 247 251 258 242 263 277 332 322 279 234 202 179 216 208 195 186
221 222 215 238 229 225 224 225 224 200 207 203 193 184 205 202 207 202 195 193 205 201 205 209 217 232 228 247 245 259 260 252 249 273 322 310 319 240 233 218 227 211 162 196 193
244 238 244 247 227 229 220 226 225 226 210 223 200 201 210 203 204 203 201 200 209 211 219 224 212 219 231 243 237 270 261 240 270 275 412 276 271 251 233 226 222 211 197 205 196
244 242 242 242 242 231 235 224 228 230 218 208 218 221 231 210 214 215 211 205 218 213 215 213 215 233 226 238 260 253 263 252 286 352 378 277 272 240 227 222 212 207 200 204 196
240 234 237 235 238 238 237 243 231 224 222 229 227 245 239 95 213 213 217 227 228 222 231 237 224 214 260 241 271 227 241 271 271 387 343 282 253 241 219 220 219 209 210 204 198
246 242 242 243 246 241 246 245 236 220 226 216 226 242 240 240 242 232 213 213 224 235 252 238 240 245 265 269 243 246 275 269 383 371 334 286 256 239 230 216 208 199 201 191 200
256 269 255 256 251 253 257 256 249 237 238 244 229 228 236 250 238 233 239 246 240 243 258 270 289 247 259 237 263 273 278 375 366 348 310 265 259 234 229 208 207 197 201 203 206
247 262 252 271 278 278 280 279 275 269 256 265 265 250 253 252 254 239 256 256 250 265 288 281 165 242 253 257 267 276 373 359 347 327 304 263 232 227 217 212 199 205 200 200 211
353 361 364 290 266 270 265 259 262 241 267 277 276 281 270 274 267 264 260 265 267 282 260 259 265 263 278 284 360 334 331 366 335 307 282 265 244 217 210 215 210 208 207 202 213
366 389 397 397 335 343 354 394 456 500 317 306 268 253 248 249 251 263 259 261 195 268 282 285 274 376 390 358 351 355 97 323 323 290 270 263 220 223 213 213 212 218 191 207 206
370 364 374 378 378 379 377 435 423 477 425 399 403 385 400 398 393 387 386 326 320 369 370 373 383 377 371 209 341 361 224 312 317 291 261 263 232 234 213 208 214 216 193 204 211
376 366 361 359 365 374 381 421 413 376 397 375 394 393 391 392 388 387 380 375 369 301 359 84 374 353 357 327 270 103 97 277 309 285 264 254 233 247 220 208 209 199 208 207 208
347 345 352 352 355 368 411 399 379 366 356 376 380 363 378 382 375 372 368 359 352 348 347 344 348 339 333 341 334 351 315 303 310 277 258 255 238 228 237 228 213 214 218 217 204
350 348 349 356 391 394 390 390 367 357 355 358 362 372 366 366 365 363 357 353 351 348 345 339 335 330 332 337 345 363 164 316 319 262 251 263 228 230 219 220 225 234 244 211 216

GFSSW_2pvu_pres_108.txt.gz
Presure
195 189 184 189 156 169 177 194 191 180 139 166 181 155 182 183 180 183 194 204 192 197 197 189 196 208 202 202 205 199 188 202 223 190 220 221 217 198 247 231 224 228 210 216 207
113 184 175 183 185 169 174 167 182 177 189 191 189 184 182 122 182 137 196 177 187 197 197 188 197 196 194 191 192 206 201 208 220 210 220 209 224 237 259 232 223 211 220 207 211
181 163 192 196 177 167 192 185 191 189 184 145 185 178 192 185 177 184 198 190 193 192 197 198 194 180 190 193 188 198 191 196 199 221 229 199 182 224 249 253 211 233 229 234 168
200 169 187 191 148 137 217 207 189 199 191 187 191 193 181 181 197 199 192 184 187 183 190 190 197 188 182 185 195 189 190 186 202 201 215 213 220 216 234 236 201 202 199 229 200
158 149 168 154 177 194 189 193 185 198 178 206 211 207 211 199 188 190 182 189 184 179 182 182 186 192 189 191 187 198 187 189 196 197 204 210 215 224 232 239 223 180 225 250 228
165 184 180 174 185 174 142 197 169 193 169 179 191 204 193 136 198 183 183 183 185 194 173 183 184 186 190 187 196 204 194 192 209 205 209 207 218 209 231 222 219 215 227 227 240
188 206 198 196 222 184 223 196 194 173 223 166 169 172 177 191 190 183 189 164 170 181 187 181 187 183 186 197 191 194 203 198 204 195 221 214 221 223 221 222 230 257 234 226 225
184 183 205 178 189 197 206 172 218 198 192 217 213 193 202 199 180 178 180 187 185 194 172 187 180 187 176 178 180 197 201 202 193 210 201 226 205 224 216 222 282 239 255 258 212
201 170 212 164 212 213 206 200 197 209 211 188 227 206 189 191 201 193 179 193 183 183 179 189 185 185 188 188 206 203 200 186 191 193 200 207 222 234 233 237 236 287 266 241 225
197 192 183 194 194 189 206 205 214 190 198 216 189 229 218 183 186 195 194 182 178 189 187 188 193 191 186 203 203 198 197 199 197 197 222 223 238 70 238 274 245 274 283 279 246
218 211 203 195 193 153 205 214 201 196 205 221 207 179 231 213 212 193 185 190 182 186 177 180 187 186 193 204 210 204 214 208 205 203 219 222 229 231 128 268 266 263 341 246 237
210 209 214 211 213 221 217 209 196 212 230 216 217 214 216 229 214 207 209 208 196 192 204 198 204 194 197 195 207 197 202 209 211 210 224 229 243 129 281 261 266 345 308 241 228
203 209 210 194 224 217 224 223 224 217 247 216 222 203 215 216 212 201 212 203 205 189 201 209 207 206 201 203 205 196 197 206 214 211 220 236 192 236 230 253 327 356 278 223 229
219 219 214 217 226 235 253 244 229 253 242 227 209 221 217 220 218 199 194 205 204 196 192 195 196 206 205 201 209 207 225 209 212 216 223 227 261 258 270 258 378 326 234 222 227
288 245 255 267 259 248 224 230 249 244 233 232 221 211 228 222 223 220 210 199 198 192 198 206 201 193 199 206 208 211 210 213 222 222 231 230 257 297 237 330 357 267 234 225 211
263 262 272 271 278 268 266 256 246 238 154 221 221 213 235 229 224 218 217 221 211 199 205 202 202 208 206 210 210 219 220 220 229 236 248 243 266 212 256 369 336 242 243 216 214
247 243 244 247 256 253 248 252 257 253 242 227 234 237 247 233 228 221 223 222 211 223 229 218 216 223 209 217 215 213 231 234 227 239 229 69 99 225 380 343 324 241 236 221 203
260 258 248 243 244 243 249 251 253 240 250 240 242 247 246 239 232 226 204 222 224 228 224 231 225 221 228 231 230 205 209 217 238 247 261 282 295 262 392 325 266 240 227 231 199
246 264 254 260 260 257 252 244 244 242 239 240 143 243 249 247 245 122 238 227 214 220 235 237 238 231 237 242 227 238 243 244 242 259 292 286 239 271 359 299 238 238 230 228 210
251 256 255 257 252 263 266 280 260 252 250 245 241 246 243 238 215 146 238 238 233 235 236 219 197 216 230 232 198 237 227 233 252 257 242 249 261 394 327 278 250 235 230 233 215
256 279 270 264 292 286 269 265 263 266 281 278 264 247 246 242 214 140 188 234 237 241 190 243 247 243 240 231 235 236 236 258 275 285 264 259 406 368 292 254 243 218 226 230 203
328 332 329 406 402 373 404 354 338 378 274 265 263 275 282 262 253 250 249 251 252 254 259 263 194 255 253 76 253 95 261 265 293 265 294 412 368 331 284 244 233 221 215 222 218
351 379 391 383 375 377 377 373 383 399 398 401 341 300 275 255 275 279 274 272 201 277 283 284 289 281 282 277 285 279 270 264 262 302 366 384 328 301 268 246 218 211 215 220 224
388 371 359 364 365 363 366 369 379 381 381 399 460 418 424 418 345 280 273 265 267 270 269 270 260 259 255 255 262 266 314 340 371 111 360 368 305 276 252 230 223 214 215 210 212
362 360 363 358 358 358 371 365 361 357 368 398 436 423 399 404 402 326 392 368 368 155 369 372 385 388 401 396 355 358 383 354 258 345 353 345 287 263 239 230 224 228 226 213 207
339 345 351 342 338 336 341 346 347 350 394 382 385 396 387 386 387 394 395 390 378 373 366 363 371 88 358 361 355 290 366 359 357 335 338 320 288 258 236 229 220 215 225 224 209
333 347 343 343 350 346 345 344 352 382 374 359 355 316 308 299 374 378 379 379 377 368 360 362 369 366 362 348 351 364 342 353 354 326 319 308 274 258 230 228 221 211 217 224 217

GFSSW_2pvu_pres_111.txt.gz
Presure
164 173 185 190 181 190 190 191 190 179 184 184 177 185 171 183 185 182 174 137 144 153 188 161 198 150 203 182 200 207 202 197 196 197 200 206 207 207 223 221 218 224 232 248 214
131 204 176 192 187 189 125 156 177 194 193 189 194 174 176 180 187 182 186 186 188 188 184 158 135 133 203 194 192 199 193 196 196 157 199 198 212 198 222 219 217 232 217 238 239
161 186 144 172 164 191 184 183 138 194 189 171 176 187 188 183 189 189 165 148 188 181 190 155 186 191 198 186 195 203 181 191 195 202 199 195 218 208 223 207 228 222 219 229 238
140 125 150 114 180 140 208 196 181 150 135 189 130 187 182 188 185 186 188 184 188 173 190 193 199 198 190 187 184 192 175 189 188 197 196 212 206 208 215 222 213 220 215 225 234
196 199 215 156 152 182 153 173 182 165 205 185 182 207 221 229 191 203 192 181 182 206 201 203 199 196 196 186 182 193 182 193 191 193 193 197 195 218 201 221 211 213 215 215 223
178 138 134 185 162 165 168 165 185 175 168 190 190 200 191 193 193 199 181 182 192 207 208 133 162 202 192 188 186 182 193 183 182 187 189 211 207 199 216 204 210 222 229 219 229
151 208 208 145 193 215 195 215 213 203 215 199 183 179 173 188 202 189 230 178 196 166 189 205 201 175 192 191 191 190 177 194 182 189 209 203 204 217 205 215 213 218 222 227 237
211 205 218 187 197 195 152 187 193 198 198 177 205 211 187 209 182 199 195 224 209 204 192 193 190 196 194 174 195 188 189 184 180 197 190 197 201 207 215 206 214 210 219 231 242
202 210 197 211 212 171 200 207 169 169 203 179 197 195 170 158 210 211 196 187 219 205 201 195 183 197 205 190 188 187 191 189 192 191 195 198 201 196 204 218 211 216 220 231 168
224 211 219 207 210 225 195 190 190 188 210 167 212 159 199 202 188 208 187 200 184 200 200 199 190 190 189 194 183 187 196 187 181 192 205 198 186 210 197 202 204 220 117 126 274
225 214 215 212 212 217 225 211 214 206 209 200 182 187 199 203 199 207 205 208 195 195 187 187 191 191 191 186 187 183 194 184 185 188 204 215 215 200 210 220 212 79 214 234 295
228 217 218 181 220 227 229 213 220 219 190 215 213 212 207 213 214 220 213 205 216 234 210 228 224 199 201 201 194 194 192 189 198 207 230 206 218 214 208 217 215 215 240 237 268
228 229 232 239 251 233 240 235 230 223 222 201 218 208 210 221 208 199 230 215 211 230 218 224 227 224 207 209 208 204 213 213 198 219 205 208 210 215 207 210 137 234 226 264 253
237 241 269 294 292 279 274 263 233 232 228 218 207 218 219 205 219 230 239 233 243 234 217 215 219 214 215 216 216 206 206 216 212 207 202 212 218 170 209 220 222 215 232 249 257
267 281 271 259 285 274 254 277 253 283 258 234 229 214 223 221 244 240 222 243 239 226 219 226 215 215 219 216 221 211 66 207 205 203 205 221 236 202 200 213 212 236 266 272 376
278 278 277 277 263 270 267 269 273 271 269 252 266 254 255 247 245 237 182 243 236 228 226 220 226 214 218 211 212 208 207 205 211 215 207 167 133 223 214 208 231 238 301 267 395
264 265 257 265 255 260 256 257 256 260 259 262 261 266 261 258 262 179 241 236 229 233 226 225 218 234 223 226 227 220 214 218 220 213 223 210 113 87 124 246 260 252 275 293 357
254 259 260 247 256 260 252 261 264 261 255 260 243 240 248 249 251 247 238 236 230 228 225 226 216 229 230 225 221 223 225 231 231 228 231 227 239 67 72 245 243 230 237 356 297
253 251 249 258 265 264 265 258 256 259 273 261 256 247 259 238 230 251 248 247 245 233 211 231 165 238 229 229 221 221 221 221 225 233 228 226 223 229 239 255 263 268 268 385 287
253 249 248 252 257 260 270 260 256 265 272 265 270 149 253 254 248 253 249 253 258 256 251 252 242 240 228 225 229 221 220 221 224 231 235 235 241 245 248 271 283 254 313 361 281
266 310 325 325 321 327 332 338 351 356 366 340 263 260 264 274 263 259 158 142 197 255 82 192 223 231 199 237 234 232 235 238 241 246 251 249 246 253 262 261 242 256 373 322 270
318 317 314 303 306 315 403 407 410 397 394 404 350 360 271 269 260 269 89 263 95 254 251 250 249 244 242 241 238 98 235 244 242 245 251 262 265 268 268 286 261 397 334 287 260
308 303 302 304 291 398 386 379 375 373 370 376 383 354 412 413 415 301 267 99 278 263 252 254 258 144 120 240 236 238 237 246 246 257 261 275 288 296 284 263 392 339 288 250 228
301 292 289 397 368 359 357 358 361 366 362 362 368 373 384 406 414 418 418 320 220 264 267 265 276 194 272 261 256 252 257 260 267 274 282 287 251 262 284 374 363 273 260 242 235
287 292 381 349 341 339 350 350 348 346 349 360 365 369 371 439 427 385 404 390 349 311 306 284 281 273 226 278 210 259 261 263 264 265 273 268 278 283 386 361 295 252 245 249 235
289 369 351 332 325 338 341 343 337 325 340 340 347 353 415 409 409 415 387 371 381 368 366 337 385 379 362 272 271 273 279 285 291 295 387 373 169 97 366 322 260 241 233 235 226
337 351 334 325 332 350 360 344 344 347 345 344 342 375 382 391 390 392 392 388 387 384 367 377 367 375 386 379 348 206 110 364 374 385 392 162 353 357 321 288 251 242 227 241 239

GFSSW_2pvu_pres_114.txt.gz
Presure
181 161 196 209 147 200 184 192 150 186 199 193 192 193 191 193 192 172 186 128 187 152 182 182 175 164 188 165 188 192 163 177 136 176 207 210 206 201 211 204 218 203 211 220 219
152 180 132 130 208 205 210 204 196 187 172 170 185 177 179 188 185 193 191 193 191 191 189 140 177 195 189 139 140 163 190 200 196 131 181 185 205 200 204 207 209 153 232 229 209
193 202 212 210 175 173 204 135 205 199 196 197 188 186 175 183 188 191 185 191 178 178 190 187 194 193 182 190 189 194 205 195 149 198 198 199 197 211 209 195 202 211 224 215 202
227 185 204 184 207 133 203 216 158 136 190 201 201 193 180 185 184 179 168 178 182 189 188 192 190 188 194 189 184 184 205 200 195 198 196 185 187 194 200 192 213 197 220 219 217
191 140 178 206 124 207 159 212 178 128 156 156 178 185 149 178 170 201 157 195 168 180 186 191 202 202 192 194 193 189 186 204 198 181 195 183 200 212 200 200 204 194 208 206 214
194 147 147 205 171 169 186 168 189 125 209 219 179 148 149 188 186 191 175 201 201 204 190 198 194 198 199 197 212 200 205 171 191 191 184 195 188 196 194 201 197 200 201 215 219
143 191 149 140 232 211 208 227 142 206 210 195 203 194 200 199 199 175 191 186 178 185 181 182 180 205 219 203 192 203 180 192 189 186 197 197 204 198 204 194 179 205 198 218 226
130 160 161 181 223 217 176 159 135 165 203 132 189 202 203 206 213 193 194 202 201 200 193 197 193 211 194 192 204 198 201 196 190 186 187 202 72 199 190 190 200 200 206 206 209
163 219 190 192 204 145 224 218 219 232 164 211 161 204 192 171 170 205 204 201 193 200 197 193 194 197 202 197 202 190 197 196 194 195 203 190 195 199 191 192 186 194 202 212 219
172 220 232 211 228 226 220 221 229 206 235 219 207 200 203 199 193 177 181 203 194 175 210 201 185 180 200 205 199 194 184 204 194 210 198 200 190 205 188 201 191 199 205 211 227
186 212 240 231 232 233 226 224 229 233 235 226 214 213 213 215 218 132 204 186 218 177 210 201 213 202 208 189 191 202 186 215 210 206 187 204 212 208 188 186 190 206 216 204 228
207 230 227 235 229 226 223 231 258 252 244 232 225 220 215 218 224 222 213 202 203 200 205 199 196 202 209 199 211 200 203 203 198 209 209 205 198 208 203 190 205 200 180 77 87
216 229 230 231 238 224 235 262 273 263 253 222 235 243 231 235 228 224 219 220 214 219 215 209 213 217 218 215 217 223 201 227 205 198 213 222 209 203 200 202 209 216 203 230 215
226 230 248 256 246 274 284 305 312 248 287 242 289 251 266 236 234 234 225 216 223 215 217 210 227 203 219 222 203 238 215 223 218 217 227 222 134 201 207 201 212 205 208 107 188
231 256 258 266 264 284 271 281 286 287 287 289 275 279 271 276 271 277 234 226 222 221 220 213 211 212 214 216 241 232 232 237 224 227 220 227 241 212 208 216 204 199 220 191 232
269 259 268 272 261 259 268 272 259 264 268 270 227 225 144 250 280 280 267 230 234 226 224 222 225 226 218 244 230 230 225 163 221 226 228 198 233 223 204 155 185 193 175 225 232
275 270 250 261 268 266 261 254 252 264 261 267 260 258 264 262 266 268 273 266 258 261 243 237 242 247 250 227 232 236 227 225 225 228 231 209 219 222 152 110 130 221 219 231 190
262 254 264 263 260 254 257 255 255 258 267 279 266 261 268 265 265 267 264 266 257 251 248 246 247 247 243 246 240 234 226 224 224 224 223 224 215 228 96 138 95 207 231 212 220
265 258 251 252 258 264 260 248 263 280 295 285 254 252 257 268 247 257 264 258 255 264 268 255 244 246 251 247 237 231 226 229 224 224 222 224 230 226 220 143 98 90 224 222 230
250 253 256 261 265 266 285 323 332 337 344 351 352 307 286 183 255 255 260 265 259 258 254 250 252 253 250 239 236 232 230 228 236 231 235 233 230 232 233 227 231 240 247 239 247
255 248 252 264 314 328 324 325 323 327 328 330 326 324 341 339 280 265 254 261 264 260 259 255 80 251 247 245 238 236 236 237 237 190 237 252 245 230 228 231 239 241 246 251 266
245 252 271 325 320 318 319 320 316 299 302 391 393 397 405 408 426 330 295 271 260 262 262 210 254 250 251 252 251 252 245 249 249 249 253 249 244 238 238 238 242 244 255 261 271
266 303 319 316 310 310 308 302 300 363 357 360 362 376 377 378 388 395 403 334 300 194 260 261 230 261 257 255 254 250 251 257 253 248 253 260 250 240 248 253 255 260 258 273 270
304 307 305 300 305 309 333 363 350 343 336 346 354 361 375 370 373 371 382 397 316 332 313 164 266 260 258 266 262 117 182 254 260 257 254 219 254 238 247 255 266 254 249 240 265
304 300 289 303 299 295 360 343 334 334 346 353 347 352 347 351 373 374 369 376 391 386 406 328 344 277 103 233 255 266 271 260 252 252 259 264 274 257 259 275 243 232 233 248 338
299 292 290 287 288 351 340 330 345 361 397 360 342 344 341 336 343 357 398 101 402 398 384 400 371 367 367 326 276 262 262 277 279 277 283 83 292 279 145 267 264 273 282 314 289
290 284 280 308 357 336 325 333 363 363 389 369 357 343 344 349 347 383 380 385 296 414 384 399 386 377 359 295 280 294 237 269 263 271 169 290 281 260 240 280 284 360 404 295 265

GFSSW_2pvu_pres_117.txt.gz
Presure
219 214 143 202 199 165 217 217 206 188 220 198 196 193 191 185 187 202 194 158 185 154 193 191 168 154 181 186 184 202 155 171 157 153 167 196 202 208 139 175 211 195 171 169 197
174 181 176 200 175 208 206 205 212 211 152 157 214 201 191 190 174 187 190 151 188 167 183 184 190 187 196 196 194 187 173 188 162 192 195 200 174 132 196 180 198 198 211 208 210
133 180 183 185 132 192 197 121 204 193 195 213 214 175 207 203 190 191 191 188 188 192 145 182 193 190 190 189 193 194 194 188 193 196 198 196 199 203 193 203 208 209 197 191 200
118 134 139 110 149 130 185 174 179 204 168 183 204 225 148 152 195 131 210 203 198 211 181 195 194 192 187 177 186 188 187 189 195 200 205 197 205 199 211 206 208 197 205 202 211
131 173 139 178 181 149 120 174 160 156 130 136 154 175 202 216 188 197 171 174 168 157 192 192 181 174 179 189 156 171 195 199 213 202 216 198 193 203 166 204 200 207 186 207 202
167 184 175 164 159 170 136 161 172 128 211 188 135 198 199 128 185 135 181 147 179 193 194 166 174 203 201 194 164 203 208 183 182 183 189 193 215 210 188 209 198 195 198 207 210
171 133 189 136 173 168 131 139 132 127 177 153 126 179 218 200 154 201 126 204 167 163 192 188 175 193 138 189 182 186 178 187 177 184 191 201 201 198 199 214 202 205 201 205 197
138 157 150 173 182 184 175 184 170 151 169 201 210 166 156 215 136 137 196 201 170 213 167 199 201 200 194 176 193 190 193 196 193 190 206 197 194 203 197 191 204 196 200 203 205
164 164 148 147 188 136 162 164 157 161 199 188 234 217 213 213 184 210 216 161 174 209 203 212 196 190 171 198 194 203 203 193 201 206 187 201 200 200 203 196 197 196 200 195 205
167 161 160 150 199 210 205 186 164 227 241 208 245 247 227 221 228 228 210 220 196 192 202 203 179 206 201 204 203 182 181 191 186 206 191 195 170 204 190 198 197 196 192 205 191
143 177 226 208 152 228 219 214 235 245 213 243 245 252 230 218 211 215 216 223 234 152 208 212 206 193 203 193 185 203 207 180 213 199 178 187 189 190 111 191 200 205 204 199 200
227 211 219 213 218 218 220 238 253 249 220 252 264 259 252 233 211 239 266 260 234 223 218 213 207 185 208 172 204 195 183 214 203 203 199 190 196 175 205 183 198 203 195 205 204
212 212 214 206 217 221 239 243 242 238 260 263 260 272 290 284 267 263 256 254 241 230 223 221 216 215 213 225 207 204 203 174 202 206 203 198 180 197 213 194 207 205 203 199 213
214 215 213 216 216 232 248 237 274 279 290 297 297 281 284 296 305 310 274 261 251 240 229 227 220 222 217 218 229 213 211 211 209 215 218 219 227 211 205 208 192 217 210 207 219
211 218 222 230 241 256 239 296 290 284 287 270 281 278 270 271 157 291 296 284 255 248 238 237 236 232 231 230 230 223 212 217 217 219 211 195 203 197 236 219 214 211 209 211 219
217 230 241 245 242 256 270 267 271 267 274 274 273 268 271 265 263 79 76 271 271 274 282 276 268 251 241 231 230 227 216 219 220 220 218 204 212 232 223 220 216 213 206 208 221
228 236 246 251 271 276 265 261 268 267 272 269 261 262 263 260 259 263 268 271 274 273 272 281 265 275 264 228 236 234 223 220 221 223 148 216 220 78 235 219 210 129 128 181 187
246 249 261 275 276 268 262 268 266 271 271 269 271 274 269 273 270 263 265 267 272 267 261 263 271 257 260 257 253 231 228 230 226 222 223 219 134 76 234 210 205 97 94 175 203
229 259 272 272 267 260 264 265 270 260 260 272 315 353 350 343 328 300 274 283 270 270 268 259 256 271 258 244 251 256 247 248 248 250 242 245 244 230 229 217 116 101 111 217 87
260 264 272 267 262 262 263 251 262 294 341 350 353 353 347 339 338 342 339 220 285 260 265 271 264 250 251 258 255 249 249 246 249 248 253 244 244 243 229 219 214 207 137 218 229
276 272 268 263 255 264 259 315 332 330 332 328 327 327 327 318 315 263 332 325 334 280 266 260 269 270 251 254 254 248 249 252 252 253 253 116 248 243 235 227 220 218 219 226 151
268 265 256 257 255 262 329 327 320 314 321 318 305 349 375 377 380 389 380 314 317 317 335 136 266 262 95 260 253 256 258 251 253 254 251 263 252 239 236 231 230 232 233 228 250
254 257 254 251 261 312 322 312 306 303 302 319 366 360 355 349 353 362 374 386 401 265 321 345 291 262 122 252 267 119 257 254 256 240 259 240 247 242 241 239 241 240 248 216 240
254 252 246 260 291 321 304 297 300 307 360 355 341 347 365 350 364 361 360 369 373 379 397 344 224 270 262 260 262 261 268 266 260 257 256 176 252 249 246 249 256 250 245 240 237
252 246 258 277 323 306 284 295 300 358 347 336 360 384 398 362 356 357 349 365 370 370 372 391 84 315 333 280 268 264 266 264 260 257 261 260 266 253 254 207 252 245 171 245 243
242 249 269 311 302 276 290 289 359 343 361 375 419 409 388 363 353 341 342 338 347 374 383 375 392 407 321 339 312 280 126 267 145 263 272 274 280 273 246 254 145 261 251 245 170
253 259 268 300 289 285 288 325 342 370 388 407 396 383 369 358 344 340 341 354 373 406 413 427 192 87 416 379 305 308 348 279 276 269 269 269 266 255 88 236 279 258 214 251 269

GFSSW_2pvu_pres_120.txt.gz
Presure
136 129 156 190 174 168 163 125 147 135 166 222 145 211 226 193 210 204 207 204 202 207 205 196 184 200 203 200 194 196 170 169 163 188 158 140 201 198 188 192 187 184 199 203 210
177 163 176 188 164 178 174 190 181 146 155 195 197 218 170 180 171 144 188 207 205 202 166 195 202 203 201 195 197 200 197 192 194 200 193 197 197 186 194 196 201 204 202 207 170
148 106 170 181 161 184 171 171 197 180 169 175 175 173 161 182 175 217 214 214 204 214 204 205 199 194 196 193 188 190 184 187 196 195 197 191 195 200 203 206 214 215 207 189 213
198 155 145 180 113 186 129 195 150 169 207 194 145 182 147 137 184 215 151 181 214 199 195 158 202 204 198 195 204 200 193 206 203 197 200 196 201 204 199 209 209 201 196 194 201
156 173 177 165 178 150 163 179 179 181 186 160 168 171 133 172 177 187 180 200 209 196 211 176 200 183 175 188 164 183 168 196 197 198 202 198 199 165 146 189 186 198 202 210 214
196 177 202 191 179 175 173 132 152 184 135 181 163 124 152 163 149 120 187 133 136 149 150 210 185 173 197 152 179 201 196 168 180 170 198 192 156 205 184 194 193 190 201 209 203
190 158 152 185 192 182 148 196 139 152 178 124 190 145 147 171 163 182 115 129 177 129 147 211 204 216 192 142 197 193 186 186 195 188 186 173 178 183 185 187 200 143 207 200 201
189 177 150 185 160 132 157 169 177 182 148 161 176 156 136 195 193 147 121 154 130 172 123 187 188 155 213 207 188 174 183 193 180 188 192 194 190 191 192 191 179 197 199 199 207
164 195 191 189 160 183 130 156 195 175 189 164 174 138 217 159 182 199 215 185 225 181 221 187 196 190 198 203 163 201 201 200 189 198 194 193 193 190 189 206 199 210 195 202 201
183 148 183 172 137 169 157 150 180 164 183 188 159 219 173 174 211 239 174 232 237 224 209 219 227 195 202 219 200 199 208 203 201 205 177 200 196 196 194 195 185 189 187 190 195
175 183 180 150 189 197 194 153 205 145 217 222 228 220 235 232 239 246 240 238 229 213 207 240 228 232 207 224 204 217 194 199 201 205 196 211 200 208 209 206 189 185 200 194 202
181 183 189 206 194 196 200 216 190 218 217 229 232 240 263 264 252 274 271 262 258 226 256 233 224 224 223 217 224 210 206 207 202 198 201 190 195 198 195 173 197 200 203 201 200
187 196 210 218 205 208 209 214 213 216 225 223 256 268 261 301 302 293 298 272 272 269 261 249 231 227 229 225 217 224 216 220 210 202 202 209 202 197 203 206 178 195 189 203 193
197 213 210 216 218 202 214 215 216 222 234 265 266 293 289 287 288 287 287 287 293 292 312 306 262 239 233 232 223 218 211 224 217 210 203 205 196 197 199 143 203 198 202 192 206
215 212 207 219 213 212 204 213 223 235 257 241 279 276 278 273 270 281 276 283 285 286 283 290 291 293 294 268 253 240 231 228 218 218 215 207 214 211 211 202 204 206 205 206 215
225 228 212 215 216 212 214 225 243 242 259 290 279 274 273 267 271 275 273 278 275 274 274 275 283 282 282 281 257 241 231 229 224 217 216 211 218 210 211 168 208 210 209 199 195
226 227 222 217 211 218 225 233 238 267 272 274 275 273 273 272 272 272 269 268 271 268 270 275 268 280 274 276 269 256 240 236 228 222 215 214 215 216 184 218 208 209 206 194 169
217 223 220 218 219 228 233 249 257 249 280 277 275 272 276 269 265 271 267 270 279 274 273 271 263 268 274 272 271 273 247 243 237 233 226 230 230 224 223 169 210 210 159 175 211
226 225 227 225 236 240 259 229 262 278 281 274 274 268 277 352 352 339 339 346 353 357 360 279 273 262 266 266 266 264 261 278 260 259 248 259 251 239 220 86 98 210 208 129 88
229 227 232 224 226 251 239 255 284 274 269 272 264 357 341 332 324 324 335 334 333 347 356 355 291 274 262 267 261 261 260 255 264 253 252 251 251 236 163 224 220 219 194 133 108
211 211 234 251 255 257 249 265 275 271 269 262 344 315 320 319 314 370 365 361 338 330 338 350 352 332 274 268 264 258 264 257 254 261 249 238 241 252 247 232 227 225 223 228 233
245 262 263 258 251 251 262 280 276 266 280 335 305 307 312 382 377 367 361 368 209 379 402 331 347 343 284 274 268 267 257 264 194 250 252 260 257 261 254 248 246 247 248 241 235
256 251 256 242 251 258 274 272 256 258 322 305 302 304 373 367 371 356 354 359 354 352 368 403 337 334 332 289 116 262 265 260 262 263 256 255 248 251 251 254 253 248 254 243 237
245 257 253 254 255 268 270 253 259 301 305 297 298 360 375 383 406 398 376 362 355 345 354 377 400 366 322 325 281 159 266 265 271 260 256 254 252 257 252 256 258 262 253 257 246
248 251 246 257 272 265 253 255 277 310 293 296 368 389 444 428 415 410 371 357 357 354 353 358 368 388 315 314 325 276 264 263 273 275 273 255 261 261 258 265 261 263 258 262 251
246 244 249 276 269 251 258 271 311 294 292 367 415 432 413 402 390 382 356 342 340 343 343 356 367 370 93 369 309 320 332 274 272 268 274 276 272 253 259 257 252 254 254 253 249
252 254 277 267 246 255 265 305 300 290 357 379 428 414 391 376 365 355 349 343 345 371 368 351 371 391 401 383 346 360 293 268 314 276 274 265 259 135 269 266 259 254 241 250 173

GFSSW_2pvu_pres_123.txt.gz
Presure
198 152 191 149 183 162 125 183 164 206 203 133 187 187 142 172 185 229 219 212 220 230 210 215 201 209 200 207 200 194 210 206 197 200 202 212 205 201 192 185 193 189 197 193 152
165 195 134 154 155 179 175 176 185 179 191 189 187 185 176 169 194 200 192 192 194 171 233 144 180 218 205 206 195 200 197 193 195 199 198 194 204 200 154 194 198 185 181 192 202
108 194 194 192 177 174 191 109 157 187 160 109 148 175 209 181 192 200 195 183 181 182 182 182 183 186 145 196 160 201 202 199 178 195 193 131 197 194 194 187 197 201 190 187 197
197 164 186 195 139 132 133 183 178 192 141 183 144 202 189 127 158 184 186 117 188 176 178 183 190 198 150 178 202 200 194 205 183 204 199 194 203 203 204 200 204 206 210 200 202
160 132 142 138 198 195 128 180 206 129 166 138 159 184 150 145 165 163 183 161 130 180 166 190 176 182 176 154 188 186 200 200 180 199 161 189 180 205 176 189 195 182 206 203 211
193 196 151 185 139 175 165 181 198 154 181 189 179 122 190 166 152 178 198 189 133 147 143 181 182 124 185 166 156 175 194 185 185 196 194 192 178 169 162 185 193 192 177 210 162
180 199 197 201 140 174 187 198 192 198 146 136 177 128 174 195 120 179 124 176 157 202 197 122 171 204 178 174 179 136 198 206 201 139 158 193 136 186 140 195 160 192 187 189 182
138 181 180 188 173 171 168 138 186 185 185 190 187 192 145 134 170 172 181 178 176 150 197 194 185 195 180 186 184 164 204 134 214 208 188 194 182 186 188 192 156 197 191 196 197
192 201 190 154 192 157 156 138 191 152 184 177 187 173 141 175 190 189 202 191 182 206 175 177 188 202 212 211 207 172 161 207 196 208 127 192 199 195 188 180 190 188 195 196 196
173 189 192 183 190 182 176 198 148 132 161 169 201 179 191 199 201 193 195 209 193 221 201 248 261 216 228 233 237 181 197 203 222 216 211 209 199 133 201 204 199 191 201 201 193
184 143 167 183 181 186 180 197 203 207 140 199 189 196 199 189 203 218 225 209 258 262 271 261 258 253 236 237 248 237 234 235 216 199 223 187 195 202 198 193 192 206 205 199 204
145 201 189 181 164 184 207 181 186 194 189 192 203 206 218 222 213 217 219 263 272 255 277 275 267 247 262 242 236 236 232 234 224 207 218 217 214 200 204 204 196 183 198 215 196
193 196 200 196 194 191 202 202 194 199 213 213 213 211 222 222 215 240 261 280 308 315 314 320 307 298 262 266 256 236 226 219 207 218 230 218 211 198 205 200 198 197 177 195 201
199 204 212 206 210 208 199 204 209 216 212 224 225 233 228 225 256 254 272 254 300 296 299 295 286 284 306 304 262 253 253 237 224 228 230 219 219 212 212 212 207 202 205 198 198
208 195 211 156 222 216 199 205 206 200 232 237 243 245 241 251 258 272 285 293 282 280 283 278 284 280 278 285 285 296 264 256 240 233 225 229 218 212 213 218 217 215 207 201 200
225 209 201 211 231 227 223 217 217 226 237 239 242 245 244 243 251 257 287 290 285 284 283 280 274 279 276 276 278 274 288 304 281 237 233 220 217 213 214 213 221 218 211 207 202
175 197 202 223 187 193 211 228 213 213 238 252 231 232 244 272 272 265 291 288 285 288 280 272 272 275 273 269 271 270 271 287 293 301 225 219 222 221 217 210 214 220 212 209 203
193 204 194 194 192 216 241 210 227 216 228 219 254 240 268 271 266 286 284 286 281 274 365 366 323 283 262 275 267 268 272 266 279 283 277 269 239 227 221 230 228 220 210 209 202
207 210 190 191 193 214 221 219 230 229 221 225 242 271 269 269 289 293 288 276 343 271 339 351 347 348 363 284 268 267 268 260 267 274 279 270 264 253 243 233 222 218 217 201 210
194 196 192 195 199 212 225 222 220 243 235 228 261 267 259 283 296 282 313 333 325 328 335 370 340 340 346 360 313 269 267 258 258 270 272 269 259 256 241 235 227 220 100 218 163
223 217 194 199 219 232 215 225 229 231 251 264 272 273 281 287 278 336 323 315 327 397 395 400 407 330 331 342 341 332 265 268 259 267 269 260 266 255 248 244 239 227 221 224 223
230 223 204 206 216 224 218 227 232 259 253 266 264 280 290 279 340 319 314 391 396 392 364 372 383 395 322 322 342 325 333 267 261 243 256 260 253 260 261 251 252 256 249 256 244
228 222 218 222 227 232 229 254 232 249 261 262 273 284 273 335 315 387 424 419 402 400 384 358 366 366 382 335 333 321 316 280 270 253 260 257 254 247 255 251 257 246 243 254 251
226 220 226 226 237 234 249 267 268 264 263 287 280 270 329 310 436 443 430 424 423 401 382 364 352 350 357 387 313 218 310 156 270 269 257 253 252 252 249 264 257 254 246 250 235
224 228 235 224 244 244 248 249 250 264 279 273 268 326 308 447 425 405 398 386 401 372 359 353 351 350 348 362 385 318 318 314 301 269 252 259 254 254 262 271 272 256 251 242 240
247 277 257 243 258 257 253 257 260 283 269 265 307 308 398 429 410 392 400 383 362 357 348 344 227 353 359 368 369 400 325 303 317 283 273 267 259 262 255 270 91 265 267 256 250
246 249 251 250 242 256 262 262 275 263 263 287 313 398 428 412 394 379 370 361 350 345 342 341 350 344 346 367 386 205 393 305 300 305 279 274 271 266 269 273 269 268 262 261 261